Terminal Aerodrome Forecast
Issued by NWS Cleveland, OH

Home | Current Version | Previous Version | Text Only | Print | Product List | Glossary Off
Versions: 1 2 3 4 5 6 7 8 9 10 11 12 13 14 15 16 17 18 19 20 21 22

120
FTUS41 KCLE 301734
TAFTOL
TAF
KTOL 301734Z 3018/0118 10010KT P6SM OVC100
     FM301930 08010G18KT 6SM -RA OVC035
     FM302130 08010G18KT 4SM -RA OVC015
     FM010100 08008KT 3SM RA BR OVC008
     FM010700 04006KT 3SM -RA BR OVC004
     FM011200 01004KT 6SM BR OVC010=

USA.gov is the U.S. government's official web portal to all federal, state and local government web resources and services.